Flag for U.S.A. Weather past 2 weeks in El Monte, California, U.S.A.

Now
74 °F

Partly sunny.


Feels Like: 77 °F
Forecast: 64 / 80 °F
Wind: No wind

Location: Fullerton Municipal Airport

Current Time: Sep 3, 2015 at 12:34:49 PM

Latest Report: Sep 3, 2015 at 11:53 AM


Visibility: 10 mi

Pressure: 29.90 "Hg

Humidity: 56%

Dew point: 57 °F

Location of El MonteLocation

Historic Weather in El Monte — Graph

°F

El Monte temperature yesterday

Maximum temperature yesterday: 80 °F (at 1:53 PM)
Minimum temperature yesterday: 69 °F (at 9:53 PM)
Average temperature yesterday: 73 °F

Past Weeks' High & Low Weather Summary

 TemperatureHumidityPressure
High98 °F (Aug 28, 1:53 PM)88% (Aug 30, 5:02 AM)29.97 "Hg (Aug 30, 5:02 AM)
Low67 °F (Aug 23, 4:53 AM)22% (Aug 28, 1:53 PM)29.79 "Hg (Aug 28, 5:53 PM)
Average77 °F64%29.88 "Hg
* Reported Aug 19 10:53 AM — Sep 3 10:53 AM, El Monte, Weather by CustomWeather, © 2015

Note: Actual official high and low records may vary slightly from our data, if they occured in-between our weather recording intervals... More about our weather records

Advertising

El Monte weather history for previous 24 hours

 ConditionsComfort  
Time TempWeatherWind HumidityBarometerVisibility
10:53 AM
Thu, Sep 3
73 °FOvercast.5 mph59%29.92 "Hg10 mi
9:53 AM71 °FOvercast.No wind66%29.93 "Hg10 mi
8:53 AM70 °FOvercast.6 mph66%29.93 "Hg10 mi
7:53 AM69 °FOvercast.7 mph68%29.91 "Hg10 mi
6:53 AM68 °FOvercast.3 mph73%29.90 "Hg10 mi
5:53 AM68 °FOvercast.3 mph70%29.89 "Hg10 mi
4:53 AM68 °FOvercast.5 mph70%29.90 "Hg10 mi
3:53 AM68 °FPassing clouds.5 mph73%29.90 "Hg10 mi
2:53 AM68 °FPassing clouds.5 mph73%29.90 "Hg10 mi
1:53 AM69 °FOvercast.6 mph73%29.90 "Hg10 mi
12:53 AM69 °FPassing clouds.No wind73%29.92 "Hg10 mi
11:53 PM
Wed, Sep 2
70 °FOvercast.No wind71%29.92 "Hg10 mi
10:53 PM69 °FOvercast.3 mph73%29.92 "Hg10 mi
9:53 PM69 °FClear.6 mph73%29.92 "Hg10 mi
8:53 PM70 °FClear.7 mph71%29.90 "Hg10 mi
7:53 PM71 °FSunny.7 mph68%29.88 "Hg10 mi
6:53 PM73 °FSunny.7 mph64%29.87 "Hg10 mi
5:53 PM75 °FSunny.9 mph60%29.86 "Hg10 mi
3:53 PM80 °FSunny.9 mph51%29.88 "Hg10 mi
2:53 PM80 °FSunny.10 mph51%29.90 "Hg10 mi
1:53 PM80 °FSunny.8 mph51%29.92 "Hg10 mi
Weather by CustomWeather, © 2015

See weather overviewHow to use our weather pages